KC7MRQ Weather Reports


Display with metric or nautical units.
time (UTC)temp
F
wind
direction
speed
MPH
gust
MPH
rain 1hr
in
rain 24hr
in
rain mn
in
humidity
%
barometer
mb
20260505153040 37 345 12.0 18.0 0.00 0.00 0.00 53 1017.1
20260505151536 37 345 9.0 17.0 0.00 0.00 0.00 53 1017.0
20260505124520 31 345 6.0 14.0 0.00 0.00 0.00 70 1016.0
20260505123017 30 294 7.0 12.0 0.00 0.00 0.00 71 1015.8
20260505121516 30 272 11.0 15.0 0.00 0.00 0.00 71 1015.9
20260505120016 29 268 8.0 11.0 0.00 0.00 0.00 72 1015.8
20260505114511 29 297 5.0 9.0 0.00 0.00 0.00 72 1015.8
20260505113009 29 283 5.0 8.0 0.00 0.00 0.00 72 1015.8
20260505111507 29 283 5.0 7.0 0.00 0.00 0.00 71 1015.6
20260505101503 31 326 4.0 8.0 0.00 0.00 0.00 67 1015.5
20260505100003 30 275 6.0 10.0 0.00 0.00 0.00 69 1015.5
20260505094558 32 277 3.0 5.0 0.00 0.00 0.00 65 1015.1
20260505093059 30 345 5.0 10.0 0.00 0.00 0.00 67 1015.2
20260505090052 31 283 9.0 12.0 0.00 0.00 0.00 66 1015.3
20260505084552 33 283 9.0 13.0 0.00 0.00 0.00 64 1015.2
20260505083051 31 294 10.0 13.0 0.00 0.00 0.00 68 1015.2
20260505081557 31 280 11.0 14.0 0.00 0.00 0.00 68 1015.2
20260505080051 32 296 7.0 11.0 0.00 0.00 0.00 67 1015.4
20260505074542 33 302 7.0 11.0 0.00 0.00 0.00 65 1015.4
20260505073045 33 308 7.0 12.0 0.00 0.00 0.00 66 1015.3
20260505071550 33 279 9.0 11.0 0.00 0.00 0.00 66 1015.4
20260505070038 33 302 5.0 8.0 0.00 0.00 0.00 64 1015.4
20260505064532 34 238 4.0 7.0 0.00 0.00 0.00 63 1015.3
20260505063031 34 345 5.0 6.0 0.00 0.00 0.00 63 1015.3
20260505061536 35 345 0.0 4.0 0.00 0.00 0.00 60 1015.2
20260505060025 36 65 0.0 6.0 0.00 0.00 0.00 58 1015.1
20260505054523 36 345 2.0 4.0 0.00 0.00 0.00 57 1015.2
20260505053020 36 345 3.0 6.0 0.00 0.00 0.00 57 1015.0
20260505051531 37 345 3.0 5.0 0.00 0.00 0.00 56 1015.0
20260505041508 40 345 4.0 6.0 0.00 0.00 0.00 52 1014.7
20260505040012 40 345 4.0 10.0 0.00 0.00 0.00 52 1014.5
20260505034505 40 345 1.0 12.0 0.00 0.00 0.00 52 1014.3
20260505033005 41 345 2.0 5.0 0.00 0.00 0.00 54 1014.1
20260505031503 41 345 4.0 9.0 0.00 0.00 0.00 55 1013.7
20260505030103 41 345 7.0 12.0 0.00 0.00 0.00 54 1013.6
20260505024558 41 345 10.0 16.0 0.00 0.00 0.00 55 1013.3
20260505023058 42 345 10.0 17.0 0.00 0.00 0.00 58 1012.9
20260505021554 42 77 11.0 18.0 0.00 0.00 0.00 60 1012.6
20260505014554 43 345 12.0 19.0 0.00 0.00 0.00 60 1012.4
20260505013057 44 84 13.0 22.0 0.00 0.00 0.00 58 1012.3
20260505011551 44 345 12.0 19.0 0.00 0.00 0.00 58 1012.2
20260505004547 45 345 13.0 21.0 0.00 0.00 0.00 55 1011.9
20260505003046 46 345 13.0 26.0 0.00 0.00 0.00 53 1011.7
20260505001544 47 345 12.0 20.0 0.00 0.00 0.00 51 1011.6
20260505000046 47 29 11.0 23.0 0.00 0.00 0.00 50 1011.3
20260504234540 48 41 17.0 23.0 0.00 0.00 0.00 49 1011.0
20260504233043 49 13 9.0 23.0 0.00 0.00 0.00 45 1010.9
20260504231541 49 27 11.0 19.0 0.00 0.00 0.00 45 1010.6
20260504230044 48 19 15.0 23.0 0.00 0.00 0.00 44 1010.6
20260504224533 49 9 13.0 22.0 0.00 0.00 0.00 45 1010.4
20260504223033 49 345 10.0 24.0 0.00 0.00 0.00 45 1010.3
20260504221532 48 345 12.0 20.0 0.00 0.00 0.00 46 1010.2
20260504220032 49 345 12.0 17.0 0.00 0.00 0.00 45 1010.2
20260504214531 48 20 12.0 18.0 0.00 0.00 0.00 46 1010.2
20260504213031 48 345 12.0 17.0 0.00 0.00 0.00 49 1010.3
20260504211530 47 345 11.0 17.0 0.00 0.00 0.00 49 1010.4
20260504210035 47 345 11.0 20.0 0.00 0.00 0.00 50 1010.4
20260504204532 47 345 15.0 21.0 0.00 0.00 0.00 49 1010.4
20260504203048 46 345 13.0 21.0 0.00 0.00 0.00 53 1010.3
20260504201527 46 345 12.0 21.0 0.00 0.00 0.00 53 1010.3
20260504200026 46 345 14.0 21.0 0.00 0.00 0.00 53 1010.2
20260504194525 46 345 13.0 21.0 0.00 0.00 0.00 53 1010.1
20260504193025 47 345 13.0 21.0 0.00 0.00 0.00 53 1010.1
20260504191526 47 345 13.0 22.0 0.00 0.00 0.00 52 1010.1
20260504190025 48 43 15.0 22.0 0.00 0.00 0.00 50 1010.0
20260504184524 49 354 16.0 22.0 0.00 0.00 0.00 51 1010.0
20260504183030 48 26 12.0 22.0 0.00 0.00 0.00 49 1010.0
20260504181522 49 7 13.0 18.0 0.00 0.00 0.00 49 1010.0
20260504180022 48 345 13.0 20.0 0.00 0.00 0.00 49 1010.1
20260504174522 47 345 11.0 18.0 0.00 0.00 0.00 50 1010.1
20260504173021 48 345 12.0 20.0 0.00 0.00 0.00 50 1010.1
20260504171520 47 345 11.0 23.0 0.00 0.00 0.00 50 1010.2